[Date Prev][Date Next][Thread Prev][Thread Next] - [Date Index][Thread Index][Author Index]
ISS 2Line keps 11/29 After Burn!
- Subject: [sarex] ISS 2Line keps 11/29 After Burn!
- From: "Scott Avery WA6LIE" <wa6lie@xxxxxxx>
- Date: Sat, 30 Nov 2002 02:55:06 +0000
ISS
1 25544U 98067A 02333.99458140 .00041204 00000-0 54154-3 0 4270
2 25544 51.6347 300.4213 0007139 200.8381 266.8871 15.58049399229838
_________________________________________________________________
The new MSN 8: advanced junk mail protection and 2 months FREE*
http://join.msn.com/?page=features/junkmail
----
Via the sarex mailing list at AMSAT.ORG courtesy of AMSAT-NA.
To unsubscribe, send "unsubscribe sarex" to Majordomo@amsat.org
AMSAT Home